Preview of NWS' New Version of Forecast
This preview is not operational and should not be used for support decisions.

Regional Weather Roundup (RWR)

Issued by National Weather Service (NWS)

                            
000
ASUS42 KTBW 200518
RWRFL 
FLORIDA REGIONAL WEATHER ROUNDUP
NATIONAL WEATHER SERVICE TAMPA BAY RUSKIN FL
100 AM EDT SAT JUL 20 2019

NOTE: "FAIR" INDICATES FEW OR NO CLOUDS BELOW 12,000 FEET WITH NO
SIGNIFICANT WEATHER AND/OR OBSTRUCTIONS TO VISIBILITY.

FLZ001>010-012>015-112-114-115-200600-
PANHANDLE FLORIDA
  
CITY           SKY/WX    TMP DP  RH WIND       PRES   REMARKS
PENSACOLA      FAIR      77  73  87 CALM      30.05S                  
PENSACOLA NAS  FAIR      73  72  96 NW3       30.05S                  
MILTON NAS     FAIR      71  71 100 CALM        N/A                   
CRESTVIEW      FAIR      73  71  93 CALM      30.07F                  
DUKE FIELD     FAIR      73  73 100 CALM      30.06S                  
VALPARAISO     FAIR      77  74  91 CALM      30.05S                  
MARY ESTHER    MOCLDY    75  72  91 CALM      30.03F                  
TRI COUNTY     FAIR      75  73  93 CALM      30.07F                  
PANAMA CITY    FAIR      76  72  87 CALM      30.06S                  
TYNDALL AFB    DRIZZLE   77  74  88 SE7       30.05F                  
APALACHICOLA   FAIR      76  73  91 NE6       30.08F                  

STATION/POSITION SKY/WX   TEMP    WIND        PRES    WAVE   SWELL
                          AIR SEA DIR/SP/G            HT/PER HT/PER
                          (F)     (DEG/KT/KT) (MB)    (FT/S) (FT/S)
30.1N   87.6W              83 86  130/ 10/ 12 1017.4F   1/ 6   2/ 6
29.2N   88.2W              85 87  130/  6/  8 1017.6
28.8N   86.0W                 87  120/  6/  8 1018.0F   1/ 8   2/ 8
PANAMA CITY BEAC           78 87  130/  4/  5 1018.8R
TOWER C                    82      80/  4/  5 1018.4F
28.5N   84.5W              84      60/  4/  4 1018.6F   1/ 4

$$
FLZ011-016>038-118-127-128-134-139-239-200600-
NORTH FLORIDA
  
CITY           SKY/WX    TMP DP  RH WIND       PRES   REMARKS
MARIANNA       FAIR      75  72  90 CALM      30.07F                  
TALLAHASSEE    FAIR      74  73  97 CALM      30.08F                  
PERRY          FAIR      74  73  97 CALM      30.09F                  
LIVE OAK       CLEAR     72  72 100 CALM      30.08F FOG              
CROSS CITY     FAIR      73  72  94 CALM      30.09S                  
LAKE CITY      FAIR      70  70 100 CALM      30.09F FOG              
GAINESVILLE    FAIR      72  71  97 NW3       30.11F                  
WILLISTON      FAIR      73  73  98 CALM      30.09S                  
PALATKA        FAIR      72  72 100 CALM      30.10S                  
MAYPORT NAS    FAIR      77  71  82 CALM      30.08F                  
JACKSONVILLE   FAIR      72  71  97 CALM      30.08F                  
JAX NAS        FAIR      80  68  66 NE5       30.09F                  
JAX CECIL      FOG       70  70 100 CALM      30.09F VSB 1            
FERNANDINA BEA FAIR      74  71  92 CALM      30.09S                  
ST AUGUSTINE   FAIR      76  73  91 MISG      30.10F                  
PALM COAST     FAIR      73  71  93 CALM      30.09F                  

STATION/POSITION SKY/WX   TEMP    WIND        PRES    WAVE   SWELL
                          AIR SEA DIR/SP/G            HT/PER HT/PER
                          (F)     (DEG/KT/KT) (MB)    (FT/S) (FT/S)
SHELL POINT      NOT AVBL
KEATON BEACH               75      80/  6/  7 1018.6F
CEDAR KEY                  81     110/ 10/ 12 1018.9F
FERNANDINA                 80 83  350/  3/  5 1019.6F
30.7N   81.3W                 83                N/A     1/ 9
MAYPORT                    77 79   20/  1/  2 1019.5F
31.4N   80.9W              80 84  300/  6/  8 1018.6F   2/10   2/10
ST AUGUSTINE               78 76   10/  4/  4 1018.9F

$$
FLZ040-043>046-052-053-057-058-063-144-200600-
INTERIOR CENTRAL FLORIDA
  
CITY           SKY/WX    TMP DP  RH WIND       PRES   REMARKS
OCALA          FAIR      74  71  91 CALM      30.10S                  
LEESBURG       FAIR      75  73  93 CALM      30.10F                  
SANFORD        FAIR      76  74  93 E3        30.09F                  
ORLANDO EXEC   FAIR      79  72  79 CALM      30.10S                  
ORLANDO INTL   FAIR      78  73  84 CALM      30.10S                  
KISSIMMEE      FAIR      78  73  84 CALM      30.11S                  
WINTER HAVEN   FAIR      78  72  81 CALM      30.11S                  
LAKELAND       FAIR      73  70  88 CALM      30.10F                  
BARTOW         FAIR      75  72  88 CALM      30.09S                  
SEBRING        FAIR      78  71  80 CALM      30.10S                  
OKEECHOBEE     FAIR      73  72  94 W5        30.08F                  

$$
FLZ041-047-054-059-064-141-147-200600-
EAST CENTRAL FLORIDA
  
CITY           SKY/WX    TMP DP  RH WIND       PRES   REMARKS
DAYTONA BEACH  FAIR      75  75 100 S3        30.09F                  
DELAND         FAIR      73  72  94 CALM      30.09S                  
JFK SPACE CTR  PTCLDY    76  66  71 CALM      30.08F                  
CAPE CANAVERAL CLEAR     78  51  39 CALM      30.07F                  
PATRICK AFB    FAIR      82  81  98 S3        30.08S                  
MELBOURNE      FAIR      80  76  87 VRB3      30.08F                  
VERO BEACH     FAIR      81  77  88 SE9       30.08F                  
FT PIERCE      FAIR      78  75  90 SE5       30.08F                  
STUART         FAIR      79  75  89 S3        30.10F                  

STATION/POSITION SKY/WX   TEMP    WIND        PRES    WAVE   SWELL
                          AIR SEA DIR/SP/G            HT/PER HT/PER
                          (F)     (DEG/KT/KT) (MB)    (FT/S) (FT/S)
28.5N   80.2W              84 85  150/  8/ 10 1018.6F   2/10   2/10
28.9N   78.5W              85 86  150/  6/ 10   N/A     2/ 9   2/ 9
TRIDENT PIER               81 83  140/  4/  5 1020.3R
28.4N   80.5W                 82                N/A     1/11
27.5N   80.2W                 83                N/A     2/10

$$
FLZ050-056-061-142-242-148-248-149-249-151-251-155-255-
160-260-200600-
WEST CENTRAL FLORIDA
  
CITY           SKY/WX    TMP DP  RH WIND       PRES   REMARKS
CRYSTAL RIVER  FAIR      75  73  94 CALM      30.09S                  
INVERNESS      FAIR      73  73 100 CALM      30.09F                  
BROOKSVILLE    FAIR      75  73  93 SE3       30.10S                  
CLEARWATER AIR FAIR      73  70  88 E3        30.08S                  
ST PETE CLEARW MOCLDY    78  69  73 E7        30.08F                  
TAMPA INTL     CLOUDY    76  71  85 CALM      30.10R                  
TAMPA EXEC     FAIR      72  72 100 CALM      30.11R                  
PLANT CITY     FAIR     N/A N/A N/A MISG      30.12S                  
MACDILL AFB    FAIR      75  71  88 N7        30.08F                  
PETER O KNIGHT CLOUDY   N/A N/A N/A N3        30.10R                  
ST PETERSBURG  FAIR      80  73  79 CALM      30.07S                  
SARASOTA       FAIR      75  72  90 E3        30.07R                  
VENICE         FAIR      75  70  83 E6        30.09S                  

STATION/POSITION SKY/WX   TEMP    WIND        PRES    WAVE   SWELL
                          AIR SEA DIR/SP/G            HT/PER HT/PER
                          (F)     (DEG/KT/KT) (MB)    (FT/S) (FT/S)
27.3N   84.2W                 87                N/A     2/ 4
CLEARWATER BEACH           78 88  200/  3/  4 1019.0R
MIDDLE TAMPA BAY           80     100/  9/ 10 1018.6F
VENICE                     76 86   80/  4/  6 1018.5F

$$
FLZ066-069-070-075>078-162-262-165-265-200600-
SOUTHWEST FLORIDA AND KEYS
  
CITY           SKY/WX    TMP DP  RH WIND       PRES   REMARKS
PUNTA GORDA    FAIR      74  73  97 E5        30.09F                  
FT MYERS       FAIR      75  72  90 NE5       30.07F                  
SOUTHWEST INTL FAIR      75  73  93 NE5       30.08F                  
MARCO ISLAND   FAIR      76  74  93 MISG      30.08F                  
IMMOKALEE      MOCLDY    77  75  94 CALM      30.06F                  
MARATHON       FAIR      85  74  69 E9        30.06F                  
KEY WEST NAS   FAIR      86  75  69 E14       30.06S HX  95           
KEY WEST INTL  FAIR      84  76  76 E9        30.06S                  

STATION/POSITION SKY/WX   TEMP    WIND        PRES    WAVE   SWELL
                          AIR SEA DIR/SP/G            HT/PER HT/PER
                          (F)     (DEG/KT/KT) (MB)    (FT/S) (FT/S)
NAPLES                     78 87              1018.5F
26.0N   85.6W              85 86   90/  8/ 10 1017.6F   2/ 6   2/ 6
DRY TORTUGAS               82      90/ 12/ 13 1018.0R
SAND KEY                   85      90/ 12/ 14 1016.6
SOMBRERO KEY               85      80/ 13/ 16 1017.9
LONG KEY                   85                 1017.2

$$
FLZ067-068-071>074-168-172>174-200600-
SOUTHEAST FLORIDA 
  
CITY           SKY/WX    TMP DP  RH WIND       PRES   REMARKS
W PALM BEACH   MOCLDY    83  73  72 SE5       30.08F                  
FT LAUDER-EXEC FAIR      84  75  74 E7        30.08S                  
FT LAUDERDALE  MOCLDY    85  75  72 E10       30.07F                  
POMPANO BEACH  FAIR      85  74  69 E8        30.08F                  
PEMBROKE PINES FAIR      85  75  72 E9        30.09F                  
OPA LOCKA      FAIR      84  75  74 E8        30.08F                  
MIAMI          MOCLDY    83  74  74 CALM      30.08S                  
WEST KENDALL     N/A    N/A N/A N/A MISG      30.07F                  
HOMESTEAD      FAIR      83  76  80 E7        30.06F                  

STATION/POSITION SKY/WX   TEMP    WIND        PRES    WAVE   SWELL
                          AIR SEA DIR/SP/G            HT/PER HT/PER
                          (F)     (DEG/KT/KT) (MB)    (FT/S) (FT/S)
VIRGINIA KEY               85 89   70/  9/ 12 1018.0F
LAKE WORTH                 84 84  130/ 11/ 12 1020.1F
FOWEY ROCKS                83 85  120/  7/  8 1018.4F
SETTLEMENT POINT           84     110/  9/ 11 1018.9F

$$